User: anonymous   Login
Location: Unspecified
(0.0000°N, 0.0000°E)
Time: 04:42:02
(UTC+00:00)
Language:

Transit 2A - Orbit

View from above orbital plane
View from above orbital plane
View from above satellite
View from above satellite

Ground track
Ground track

The orbit data is extracted from the following two-line orbital elements,

1 00045U 60007A   16177.18192392 -.00000034  00000-0  18539-4 0  9997
2 00045  66.6945 250.1747 0262902 292.7351  64.6159 14.33493407914398
Epoch (UTC): 25 June 2016 04:21:58
Eccentricity: 0.0262902
inclination: 66.6945°
perigee height: 592 km
apogee height: 968 km
right ascension of ascending node: 250.1747°
argument of perigee: 292.7351°
revolutions per day: 14.33493407
mean anomaly at epoch: 64.6159°
orbit number at epoch: 91439

The dashed part of the orbit path shows where the satellite is in the earth's shadow,  

DLR